weather.gov     
National Weather Service

Terminal Aerodrome Forecast
NWS Homepage
This page is being discontinued on March 12, 2014.
The same data is available at this site. Please update your bookmarks.
Thank you, and we apologize for the inconvenience.
Please send an email to SR-SRH.Webmaster@noaa.gov with any concerns.


Current Version
Previous Version:    01  02  03  04  05  06  07  08  09  10  11  12  13  14  15  16  17  18  19  20  21  22  23  24  25  26  27  
[Printable]
976
FTAK31 PANC 221735
TAFAVD
TAF
PAVD 221735Z 2218/2318 10015KT P6SM SCT250
      TEMPO 2218/2220 10015G23KT
     FM222000 10015G23KT P6SM SCT250
     FM230200 07007KT P6SM FEW250
     FM231200 VRB03KT P6SM VCSH BKN060
      AMD LTD TO CLD VIS AND WIND=




976
FTAK31 PANC 221735
TAFAVD
TAF
PAVD 221735Z 2218/2318 10015KT P6SM SCT250
      TEMPO 2218/2220 10015G23KT
     FM222000 10015G23KT P6SM SCT250
     FM230200 07007KT P6SM FEW250
     FM231200 VRB03KT P6SM VCSH BKN060
      AMD LTD TO CLD VIS AND WIND=


U.S. Dept. of Commerce
NOAA National Weather Service
1325 East West Highway
Silver Spring, MD 20910
E-mail: w-nws.webmaster@noaa.gov
Page last modified: May 16, 2007
NATIONAL WEATHER SERVICE: for Safety, for Work, for Fun - FOR LIFE